Location: Le Moustier
(44.1000°N, 6.5167°E)
Time: 01:53:57
(UTC+00:00)

Gbstr 26 Del rocket - Pass Details

Date: 13 December 2025
Orbit: 490 x 1218 km, 51.8° (Epoch: 12 January)

Event Time Altitude Azimuth Distance (km) Brightness Sun altitude
Rises 17:07:17 0° 257° (WSW) 2,846 8.5 -12.3°
Reaches altitude 10° 17:09:46 10° 263° (W) 1,856 6.9 -12.7°
Maximum altitude 17:13:43 44° 337° (NNW) 720 3.4 -13.4°
Enters shadow 17:15:59 20° 42° (NE) 1,195 4.0 -13.8°
